Regional Weather Roundup
Issued by NWS

Home | Current Version | Previous Version | Text Only | Print | Product List | Glossary Off
Versions: 1 2 3 4 5 6 7 8 9 10 11 12 13 14 15 16 17 18 19 20 21 22 23 24 25 26 27 28 29 30 31 32 33 34 35 36 37 38 39 40 41 42 43 44 45 46 47 48 49 50

000
ASUS43 KMPX 220401
RWRMN
WEATHER ROUNDUP FOR MINNESOTA
NATIONAL WEATHER SERVICE TWIN CITIES/CHANHASSEN MN
1100 PM CDT SAT OCT 21 2017


NOTE: "FAIR" INDICATES FEW OR NO CLOUDS BELOW 12,000 FEET WITH NO
SIGNIFICANT WEATHER AND/OR OBSTRUCTIONS TO VISIBILITY. N/A MEANS
CURRENT SKY AND/OR WEATHER CONDITIONS ARE NOT AVAILABLE.

MNZ060>063-068>070-220500-
   Twin Cities Metro

CITY           SKY/WX    TMP DP  RH WIND       PRES   REMARKS
TWIN CITIES    CLOUDY    54  49  83 W13       29.82R
ST PAUL        CLOUDY    56  50  80 W9        29.82R
CRYSTAL        PTCLDY    53  46  77 W9        29.80R
BLAINE         PTCLDY    55  50  82 W8        29.80R
LAKEVILLE      MOCLDY    52  46  82 W14G21    29.83R
EDEN PRAIRIE   CLOUDY    53  46  77 W12G18    29.82R
SOUTH ST PAUL  CLOUDY    56  50  80 W9G16     29.81R
LAKE ELMO      CLOUDY    55  50  82 W15       29.82R
$$
MNZ001>005-007-008-013>017-022>024-027-028-220500-
   Northwest Minnesota

CITY           SKY/WX    TMP DP  RH WIND       PRES   REMARKS
BEMIDJI        CLOUDY    48  43  81 W12       29.68R
HALLOCK        CLOUDY    52  43  71 W10G17    29.59S
ROSEAU         CLOUDY    52  45  76 W10G22    29.58S
WARROAD        CLOUDY    52  45  76 SW10      29.58F
CROOKSTON      CLOUDY    52  39  62 W13       29.66S
FOSSTON        CLOUDY    48  43  81 SW14      29.69R
DETROIT LAKES  CLOUDY    50  43  76 W8        29.74R
MOORHEAD       CLOUDY    52  39  62 SW9       29.74R
PARK RAPIDS    CLOUDY    49  43  80 W12       29.72R
MAHNOMEN       CLOUDY    49  43  81 SW12      29.70R
$$
MNZ006-009>011-018-025>026-220500-
   North Central Minnesota

CITY           SKY/WX    TMP DP  RH WIND       PRES   REMARKS
BAUDETTE       CLEAR     49  43  80 SW8       29.59R
FLAG ISLAND    CLEAR     52  43  71 SW10      29.53S
INTL FALLS     CLOUDY    53  50  89 SW10      29.60R
WASKISH        CLEAR     50  46  87 SW15      29.63R
BIG FORK       PTCLDY    52  48  87 SW8       29.66R
LONGVILLE      PTCLDY    48  45  87 SW10G18   29.71R
GRAND RAPIDS   CLOUDY    52  48  86 W12G17    29.71R
CRANE LAKE     CLOUDY    61  59  94 S9        29.60F
ORR            RAIN      54  48  82 CALM      29.61R
COOK           LGT RAIN  54  52  94 W8        29.65R
WALKER         MOCLDY    47  43  85 SW10G16   29.70R
$$
MNZ012-019>021-037-220500-
   Northeast Minnesota

CITY           SKY/WX    TMP DP  RH WIND       PRES   REMARKS
DULUTH         LGT RAIN  58  58 100 W20       29.67R
ELY            CLOUDY    63  57  82 S10G18    29.63F
HIBBING        CLOUDY    52  50  93 SW6       29.67R
EVELETH        DRIZZLE   55  53  93 W13G18    29.67R
DULUTH HARBOR  RAIN      64  61  88 SW21      29.65R
TWO HARBORS    CLOUDY    64  61  88 S5        29.65R
SILVER BAY     CLOUDY    61  59  94 S3        29.66S
GRAND MARAIS     N/A     53  52  96 NE6       29.69F
G MARAIS ARPRT RAIN      59  54  82 S8        29.72F
$$
MNZ029>031-032-039>041-046>048-054>057-064-220500-
   West Central Minnesota

CITY           SKY/WX    TMP DP  RH WIND       PRES   REMARKS
FERGUS FALLS   CLOUDY    48  41  76 W9        29.77R
WHEATON        PTCLDY    50  37  62 W10       29.81S
MORRIS         CLEAR     48  41  76 W10       29.79S
ALEXANDRIA     CLEAR     48  41  76 W13       29.79R
ELBOW LAKE     MOCLDY    47  41  79 SW8       29.78S
WADENA         CLOUDY    48  43  81 W7        29.74S
GLENWOOD       CLEAR     45  43  93 SW8       29.79F
APPLETON       CLEAR     46  39  76 W8        29.81F
BENSON         CLEAR     46  41  81 W8        29.82F
ORTONVILLE     CLEAR     48  39  71 W13G18    29.82S
MADISON        CLEAR     48  41  76 W8        29.84R
WILLMAR        FAIR      46  43  87 W8        29.83F
$$
MNZ033>034-036-042>043-049>051-058-059-220500-
   Central Minnesota

CITY           SKY/WX    TMP DP  RH WIND       PRES   REMARKS
ST CLOUD       PTCLDY    49  44  83 W13       29.79R
SAUK CENTRE    FAIR      47  42  83 W9        29.79S
PAYNESVILLE    CLOUDY    47  43  86 W8        29.81F
AITKIN         CLEAR     46  45  93 SW7       29.72R
PINE RIVER     CLEAR     46  41  81 W6        29.77R
BRAINERD       CLEAR    N/A N/A N/A W14       29.76R
STAPLES        MOCLDY    46  43  87 W7        29.75R
LONG PRAIRIE   MOCLDY    46  41  81 SW6       29.78S
LITTLE FALLS   PTCLDY    48  37  66 W6        29.77S
LITCHFIELD     PTCLDY    50  45  81 W6        29.83S
BUFFALO        PTCLDY    51  44  77 W12       29.82R
MAPLE LAKE     PTCLDY    51  46  80 W9        29.81F
HUTCHINSON     CLOUDY    49  45  87 W6        29.84F
$$
MNZ037-044-045-052-053-220500-
   East Central Minnesota

CITY           SKY/WX    TMP DP  RH WIND       PRES   REMARKS
PRINCETON      CLEAR     52  45  76 W8G17     29.79R
MORA           CLOUDY    50  46  87 W8        29.78R
CAMBRIDGE      PTCLDY    54  50  87 W8        29.78R
RUSH CITY      CLOUDY    53  49  87 W9G17     29.77R
MOOSE LAKE     CLOUDY    52  50  93 W6        29.70R
HINCKLEY       CLOUDY    52  52 100 SW7       29.75R
CLOQUET        CLOUDY    54  48  82 W9G17     29.70R
MCGREGOR       CLOUDY    52  48  87 W5        29.73R
$$
MNZ071>073-080-081-089-090-097-098-220500-
   Southwest Minnesota

CITY           SKY/WX    TMP DP  RH WIND       PRES   REMARKS
MONTEVIDEO     CLEAR     46  41  81 W6        29.82F
GRANITE FALLS  CLEAR     46  41  85 SW8       29.86S
CANBY          CLEAR     49  40  68 W12       29.85F
MARSHALL       CLEAR     47  40  76 W7        29.86S
REDWOOD FALLS  CLOUDY    49  40  71 SW8       29.85R
OLIVIA         CLOUDY    46  43  87 W8        29.83F
PIPESTONE      CLEAR     43  37  81 W6        29.88R
WORTHINGTON    CLEAR     43  39  86 SW7       29.90R
JACKSON        PTCLDY    46  37  71 W8        29.90R
TRACY          CLEAR     48  42  78 W6        29.87S
SLAYTON        CLEAR     45  39  82 W9        29.88S
$$
MNZ065>067-074>077-082>085-091>093-220500-
   South Central Minnesota

CITY           SKY/WX    TMP DP  RH WIND       PRES   REMARKS
NEW ULM          N/A     48  43  81 W6        29.86S
ST JAMES       MOCLDY    48  43  81 W6        29.89R
FAIRMONT       CLOUDY    50  42  74 W8        29.89R
GLENCOE        PTCLDY    51  45  79 W7G16     29.83S
FARIBAULT      CLOUDY    54  46  76 W10G21    29.85R
OWATONNA       CLOUDY    54  46  76 W14G23    29.87R
WASECA         CLOUDY    52  46  82 W9        29.88R
$$
MNZ078>079-086>088-094>096-220500-
   Southeast Minnesota

CITY           SKY/WX    TMP DP  RH WIND       PRES   REMARKS
ROCHESTER      CLOUDY    54  51  90 NW10      29.85R
RED WING       RAIN      55  52  88 W3        29.81R
STANTON        MOCLDY    55  48  76 W12G17    29.83R
DODGE CENTER   CLOUDY    54  48  82 W9        29.85R
WINONA         LGT RAIN  63  61  94 CALM      29.79R
AUSTIN         CLOUDY    54  48  82 W10       29.86R
PRESTON        LGT RAIN  55  51  89 NW13      29.84R
$$
ABBREVIATIONS USED IN REMARKS
   TC - TEMPERATURES IN CELSIUS
  WCI - WIND CHILL INDEX
   HX - HEAT INDEX
  VSB - VISIBILITY
$$




USA.gov is the U.S. government's official web portal to all federal, state and local government web resources and services.